Flag for Canada Weather past 2 weeks in Yarmouth County, Nova Scotia, Canada

Now
25 °F

Overcast.


Feels Like: 15 °F
Forecast: 16 / 31 °F
Wind: 9 mph from East

Location: Yarmouth

Current Time: Jan 30, 2015 at 10:48:09 AM

Latest Report: Jan 30, 2015 at 10:00 AM


Visibility: 15 mi

Pressure: 29.95 "Hg

Humidity: 93%

Dew point: 23 °F

Location of Yarmouth CountyLocation

Historic Weather in Yarmouth County — Graph

°F

Yarmouth County temperature yesterday

Maximum temperature yesterday: 32 °F (at 3:00 PM)
Minimum temperature yesterday: 18 °F (at 8:00 AM)
Average temperature yesterday: 24 °F

Past Weeks' High & Low Weather Summary

 TemperatureHumidityPressure
High50 °F (Jan 19, 6:02 AM)100% (Jan 15, 9:00 AM)30.38 "Hg (Jan 15, 9:00 AM)
Low10 °F (Jan 18, 12:00 AM)50% (Jan 26, 3:00 PM)28.71 "Hg (Jan 24, 11:00 PM)
Average28 °F81%29.84 "Hg
* Reported Jan 15 9:00 AM — Jan 30 9:00 AM, Yarmouth County, Weather by CustomWeather, © 2014

Note: Actual official high and low records may vary slightly from our data, if they occured in-between our weather recording intervals... More about our weather records

Advertising

Yarmouth County weather history for previous 24 hours

 ConditionsComfort  
Time TempWeatherWind HumidityBarometerVisibility
9:00 AM
Jan 30
21 °FOvercast.8 mph93%29.97 "Hg15 mi
8:00 AM19 °FOvercast.7 mph93%30.00 "Hg15 mi
7:00 AM18 °FOvercast.6 mph93%30.01 "Hg15 mi
6:00 AM18 °FOvercast.3 mph93%30.04 "Hg15 mi
5:00 AM18 °FOvercast.5 mph93%30.06 "Hg15 mi
4:00 AM16 °FPassing clouds.8 mph100%30.08 "Hg15 mi
3:00 AM14 °FPassing clouds.5 mph92%30.09 "Hg15 mi
2:00 AM18 °FPassing clouds.7 mph93%30.09 "Hg15 mi
1:00 AM16 °FPassing clouds.8 mph100%30.10 "Hg15 mi
12:00 AM23 °FPassing clouds.6 mph100%30.12 "Hg15 mi
11:00 PM
Jan 29
21 °FClear.2 mph93%30.14 "Hg15 mi
10:00 PM21 °FClear.2 mph93%30.14 "Hg15 mi
9:00 PM25 °FClear.7 mph93%30.15 "Hg15 mi
8:00 PM23 °FPassing clouds.2 mph80%30.18 "Hg15 mi
7:00 PM27 °FPassing clouds.2 mph93%30.18 "Hg15 mi
6:00 PM27 °FPassing clouds.3 mph86%30.17 "Hg15 mi
5:00 PM30 °FSunny.2 mph69%30.16 "Hg15 mi
4:00 PM32 °FSunny.3 mph69%30.17 "Hg15 mi
3:00 PM32 °FSunny.2 mph69%30.18 "Hg15 mi
2:00 PM30 °FSunny.6 mph69%30.19 "Hg15 mi
1:00 PM28 °FSunny.10 mph74%30.21 "Hg15 mi
12:00 PM27 °FPassing clouds.3 mph80%30.23 "Hg15 mi
11:00 AM25 °FPassing clouds.9 mph80%30.24 "Hg15 mi
10:00 AM23 °FPassing clouds.7 mph80%30.25 "Hg15 mi
Weather by CustomWeather, © 2014

See weather overviewHow to use our weather pages